アトラス彗星

C/2019 T3 ( ATLAS )

English version
Home page
Updated on March 26, 2020

---------------------------------------------------------------------

・ プロフィール

発見日 2019年10月6日
発見光度 18.9等
発見者 Asteroid Terrestrial-Impact Last Alert System (ATLAS) search program

・ 写真集

・ 軌道要素

Epoch 2021 Mar. 7.0 TT = JDT 2459280.5
T 2021 Mar. 2.70413 TT                                  Rudenko
q   5.9464572            (2000.0)            P               Q
z  +0.0002858      Peri.  112.27724     +0.60545701     +0.57396008
 +/-0.0000046      Node   139.52081     -0.19751330     -0.56273047
e   0.9983002      Incl.  121.86226     +0.77098009     -0.59489852
From 182 observations 2019 Jan. 17-2020 Mar. 18, mean residual 0".4.

・ 光度変化

        m1 = -2.6 + 5 logΔ + 20.0 log r

---------------------------------------------------------------------

軌道要素はM.P.E.C. 2020-F67に掲載されたものです。
光度グラフはComet for Windowsで作成したものです。

---------------------------------------------------------------------

Copyright(C) Seiichi Yoshida (comet@aerith.net). All rights reserved.